TimeCDT,TemperatureF,Dew PointF,Humidity,Sea Level PressureIn,VisibilityMPH,Wind Direction,Wind SpeedMPH,Gust SpeedMPH,PrecipitationIn,Events,Conditions,WindDirDegrees,DateUTC
12:53 AM,79.0,46.0,31,29.77,10.0,SSE,18.4,-,N/A,,Clear,160,2013-07-06 05:53:00
1:53 AM,77.0,46.0,33,29.78,10.0,SSE,16.1,-,N/A,,Scattered Clouds,150,2013-07-06 06:53:00
2:53 AM,75.9,48.0,37,29.78,10.0,South,13.8,-,N/A,,Scattered Clouds,180,2013-07-06 07:53:00
3:53 AM,75.9,48.9,38,29.78,10.0,South,16.1,-,N/A,,Mostly Cloudy,190,2013-07-06 08:53:00
4:53 AM,75.0,48.9,40,29.78,10.0,SSW,16.1,-,N/A,,Overcast,200,2013-07-06 09:53:00
5:53 AM,73.9,50.0,43,29.79,10.0,SSW,16.1,-,N/A,,Overcast,200,2013-07-06 10:53:00
6:53 AM,73.0,51.1,46,29.81,10.0,SSW,11.5,-,N/A,,Overcast,200,2013-07-06 11:53:00
7:53 AM,73.9,53.1,48,29.81,10.0,South,11.5,-,N/A,,Mostly Cloudy,180,2013-07-06 12:53:00
8:53 AM,75.9,54.0,46,29.83,10.0,SSW,17.3,20.7,N/A,,Mostly Cloudy,200,2013-07-06 13:53:00
9:53 AM,81.0,55.9,42,29.84,10.0,South,21.9,26.5,N/A,,Mostly Cloudy,190,2013-07-06 14:53:00
10:53 AM,82.9,55.0,38,29.81,10.0,South,19.6,27.6,N/A,,Scattered Clouds,190,2013-07-06 15:53:00
11:53 AM,87.1,51.1,29,29.80,10.0,South,23.0,28.8,N/A,,Scattered Clouds,170,2013-07-06 16:53:00
12:53 PM,91.0,48.0,23,29.79,10.0,South,23.0,33.4,N/A,,Scattered Clouds,180,2013-07-06 17:53:00
1:53 PM,93.0,46.0,20,29.78,10.0,SSE,21.9,33.4,N/A,,Partly Cloudy,160,2013-07-06 18:53:00
2:53 PM,93.9,45.0,18,29.77,10.0,South,19.6,31.1,N/A,,Partly Cloudy,190,2013-07-06 19:53:00
3:53 PM,95.0,44.1,17,29.74,10.0,SSE,23.0,31.1,N/A,,Partly Cloudy,160,2013-07-06 20:53:00
4:53 PM,93.9,42.1,17,29.73,10.0,SSE,24.2,29.9,N/A,,Scattered Clouds,160,2013-07-06 21:53:00
5:53 PM,93.9,45.0,18,29.72,10.0,South,21.9,29.9,N/A,,Partly Cloudy,180,2013-07-06 22:53:00
6:53 PM,93.0,46.0,20,29.72,10.0,SSE,19.6,-,N/A,,Partly Cloudy,150,2013-07-06 23:53:00
7:53 PM,91.0,46.0,21,29.73,10.0,SSE,17.3,-,N/A,,Partly Cloudy,160,2013-07-07 00:53:00
8:53 PM,87.1,46.0,24,29.76,10.0,SSE,13.8,-,N/A,,Partly Cloudy,150,2013-07-07 01:53:00
9:53 PM,84.0,46.0,26,29.78,10.0,SSE,12.7,-,N/A,,Partly Cloudy,150,2013-07-07 02:53:00
10:53 PM,82.0,48.0,30,29.80,10.0,SSE,13.8,-,N/A,,Partly Cloudy,150,2013-07-07 03:53:00
11:53 PM,81.0,48.0,31,29.81,10.0,SSE,15.0,-,N/A,,Clear,150,2013-07-07 04:53:00